Temp
62 62 62 62 62 61 61 61 61 60 60 60 60 60 60 60 60 60 61 61 61 61 61 62 62 63 70 79 84 94 83 82 90 93 94 89 85 83 79 79 78 75 81 82 85 84 84
62 62 62 62 62 61 61 61 61 60 60 60 60 59 59 60 60 60 60 60 60 60 61 61 62 63 73 74 95 93 89 88 94 94 92 92 89 88 81 78 77 81 81 83 84 84 84
62 62 62 62 62 61 61 61 61 60 60 60 59 59 60 60 60 60 60 60 60 60 61 62 63 66 72 81 92 92 93 93 94 96 91 94 92 88 85 78 82 80 77 83 83 85 84
62 61 62 62 62 61 61 61 61 60 60 60 59 59 59 59 59 59 59 58 59 60 62 64 63 68 76 90 91 90 94 93 94 95 95 95 93 86 82 81 79 76 77 79 85 85 85
61 61 61 61 61 61 61 61 61 60 60 60 59 59 59 59 58 58 58 58 60 62 64 64 67 72 77 86 86 94 93 91 92 92 93 94 91 83 79 75 74 74 70 72 79 86 85
61 62 62 62 61 61 60 60 60 60 59 59 59 59 58 58 58 57 57 58 60 62 66 69 74 72 82 85 90 89 92 93 90 90 87 86 82 78 73 73 67 69 72 72 74 83 86
61 61 61 60 60 60 60 60 60 59 59 59 58 58 58 58 57 57 57 64 71 68 68 76 76 78 82 89 92 90 92 91 90 87 79 81 75 71 75 77 76 73 72 72 78 83 81
60 60 60 60 60 59 59 59 59 58 58 58 58 58 58 58 57 56 56 67 68 68 68 74 74 75 81 84 79 88 93 86 84 79 78 75 71 79 79 80 74 75 72 73 79 82 80
60 60 60 59 59 59 59 58 58 58 58 58 58 58 58 57 56 57 56 65 69 70 66 73 75 76 80 83 80 83 89 86 83 77 78 75 79 81 78 78 72 73 70 73 72 79 82
60 60 60 59 59 59 58 58 58 58 58 58 58 57 56 56 56 54 60 67 67 68 64 70 72 78 79 84 78 90 93 89 82 79 77 78 83 77 74 75 78 69 77 76 75 74 72
60 60 59 59 59 58 58 58 58 58 58 58 57 57 56 56 52 56 65 63 67 70 54 74 74 84 80 81 84 82 92 89 81 78 79 75 76 76 73 76 78 66 76 76 77 74 74
60 59 59 59 59 58 58 58 58 58 57 57 57 56 56 56 52 58 61 63 68 63 53 70 77 74 74 79 82 82 85 90 88 80 80 81 80 82 80 81 79 78 74 73 74 74 67
59 59 59 59 58 58 58 58 58 57 57 57 56 55 54 58 59 60 63 69 61 56 70 69 72 74 74 73 77 79 78 78 76 70 71 73 75 78 79 70 72 71 69 59 60 63 66
59 59 59 58 58 58 58 58 57 57 57 56 55 54 55 56 59 60 62 66 53 63 64 72 72 71 70 74 76 77 76 75 81 81 74 69 64 73 77 76 69 69 67 66 58 60 68
59 59 59 58 58 58 58 58 57 57 56 55 53 54 54 57 59 59 65 57 61 62 69 69 71 67 68 72 74 75 76 77 80 82 72 70 71 77 78 78 75 67 64 74 66 62 63
58 58 58 58 58 58 58 57 57 57 56 54 51 52 58 58 59 60 64 56 63 67 70 70 64 68 65 69 70 73 73 81 79 83 88 77 69 76 71 76 70 69 72 66 67 58 58
58 58 58 58 57 57 57 57 57 56 55 53 54 62 60 58 60 64 60 61 63 70 69 69 66 66 67 67 70 71 74 77 84 80 86 83 78 69 73 71 69 64 66 67 70 70 64
58 58 58 58 57 57 57 57 57 55 54 54 53 60 61 61 61 56 61 62 58 69 72 72 71 69 68 69 68 69 72 79 85 83 77 82 80 69 70 74 77 79 73 73 68 62 68
58 58 58 57 57 57 57 57 56 55 54 51 54 58 62 62 58 59 62 63 66 69 70 69 69 70 70 69 64 68 71 81 81 83 81 79 76 67 67 71 73 73 73 76 77 75 68
58 58 58 57 57 57 58 58 57 55 55 54 56 58 62 61 59 57 57 61 62 70 69 70 70 71 69 68 70 68 71 79 81 82 73 81 81 74 67 71 77 70 73 75 78 72 73
58 58 58 57 58 57 57 58 57 55 55 56 56 52 53 53 58 55 56 58 60 61 67 67 66 67 65 63 66 66 70 74 82 72 75 83 73 75 79 81 78 78 78 76 72 77 73
58 58 58 58 57 57 57 57 57 55 54 56 52 49 53 52 52 54 53 56 57 59 60 64 63 64 64 62 68 67 69 72 75 79 76 77 72 72 74 79 79 76 80 81 78 80 80
57 58 58 58 57 57 57 57 56 54 55 52 53 54 48 50 52 54 55 54 56 57 63 64 63 61 63 67 69 72 74 74 74 70 74 75 72 69 67 76 76 70 78 79 79 80 80
57 57 58 57 58 57 57 57 56 55 54 54 50 48 46 50 51 53 52 53 53 56 55 61 62 59 69 72 74 72 70 70 70 71 76 70 67 69 65 68 58 78 87 85 80 82 83
57 58 57 57 57 57 57 57 57 56 54 55 53 48 46 44 50 51 52 52 55 57 54 58 64 69 71 68 65 66 68 68 71 74 74 76 72 63 64 64 69 75 76 78 77 77 84
57 57 57 57 57 57 57 57 57 56 54 55 51 52 48 43 50 53 49 51 49 53 56 59 67 70 67 64 63 58 61 67 66 68 72 74 71 75 64 62 61 77 82 85 86 73 84
57 57 57 57 57 57 57 57 57 57 55 54 53 52 48 43 53 52 49 50 55 53 52 56 59 61 65 62 60 61 64 69 65 65 65 68 67 69 66 67 72 79 80 83 69 76 82
57 57 56 57 57 57 57 57 57 57 57 54 55 54 49 44 49 53 55 50 52 53 49 58 58 58 57 57 59 63 62 68 67 69 68 68 66 66 63 64 63 80 78 75 80 80 80
56 56 56 56 56 57 57 57 57 57 57 56 50 57 54 46 47 57 57 58 57 59 58 58 57 54 58 55 59 59 60 63 64 65 67 67 73 72 70 72 73 77 75 79 80 81 78
MSLP
1020.23 1019.97 1019.70 1019.39 1019.11 1018.75 1018.39 1018.04 1017.71 1017.40 1017.03 1016.61 1016.22 1015.79 1015.31 1014.83 1014.27 1013.70 1013.20 1012.76 1012.34 1011.89 1011.40 1010.95 1010.71 1010.19 1009.21 1007.95 1004.93 1003.30 1003.43 1003.66 1004.14 1004.12 1003.74 1004.16 1004.67 1005.01 1005.20 1005.66 1006.07 1005.91 1004.82 1004.59 1004.22 1004.04 1003.97
1020.41 1020.14 1019.80 1019.44 1019.11 1018.76 1018.38 1018.00 1017.64 1017.27 1016.88 1016.48 1016.07 1015.71 1015.27 1014.68 1014.07 1013.41 1012.92 1012.43 1011.95 1011.53 1011.05 1010.74 1010.52 1010.35 1009.39 1006.80 1003.60 1003.34 1003.63 1003.90 1003.77 1003.79 1003.75 1003.91 1004.03 1004.54 1005.06 1005.49 1005.55 1005.23 1004.84 1004.16 1003.80 1003.50 1003.47
1020.55 1020.22 1019.90 1019.53 1019.16 1018.81 1018.37 1017.98 1017.53 1017.15 1016.77 1016.39 1015.97 1015.52 1015.00 1014.40 1013.78 1013.18 1012.57 1012.12 1011.53 1010.94 1010.52 1010.17 1010.18 1010.02 1008.54 1004.97 1003.58 1003.49 1003.64 1003.54 1003.77 1003.56 1003.50 1003.75 1003.95 1004.27 1004.83 1005.19 1005.22 1005.12 1004.52 1003.56 1003.34 1003.05 1002.93
1020.66 1020.31 1019.93 1019.53 1019.11 1018.76 1018.28 1017.89 1017.48 1017.04 1016.62 1016.17 1015.71 1015.17 1014.62 1014.06 1013.52 1012.96 1012.29 1011.66 1011.00 1010.37 1009.78 1009.40 1009.69 1009.41 1006.66 1003.80 1003.74 1003.73 1003.66 1003.52 1003.70 1003.68 1003.50 1003.69 1004.00 1004.48 1004.95 1005.35 1005.33 1004.94 1004.44 1003.03 1002.70 1002.56 1002.66
1020.73 1020.33 1019.95 1019.54 1019.12 1018.68 1018.21 1017.73 1017.28 1016.77 1016.33 1015.88 1015.39 1014.87 1014.30 1013.76 1013.22 1012.64 1011.82 1011.06 1010.38 1009.85 1009.23 1009.34 1009.31 1008.47 1005.31 1003.55 1003.42 1002.68 1003.06 1003.07 1003.50 1003.75 1003.73 1003.89 1004.09 1004.53 1005.22 1005.12 1005.05 1004.75 1003.96 1003.32 1002.55 1002.49 1002.33
1020.68 1020.24 1019.84 1019.40 1018.95 1018.55 1018.08 1017.57 1017.10 1016.58 1016.09 1015.58 1015.04 1014.58 1014.06 1013.46 1012.91 1012.28 1011.42 1010.25 1009.79 1009.76 1009.47 1009.19 1008.52 1007.99 1004.35 1002.64 1002.17 1002.41 1002.69 1002.75 1003.08 1003.45 1003.71 1003.89 1004.33 1004.52 1004.83 1004.81 1004.19 1004.18 1003.90 1003.66 1003.03 1002.47 1002.10
1020.80 1020.38 1019.92 1019.50 1019.03 1018.52 1017.95 1017.42 1016.92 1016.40 1015.87 1015.35 1014.84 1014.30 1013.75 1013.19 1012.65 1012.11 1011.23 1009.82 1009.83 1009.51 1008.65 1006.51 1005.70 1004.51 1003.18 1002.38 1002.13 1001.94 1002.21 1002.48 1002.80 1003.15 1003.17 1003.84 1004.10 1003.93 1003.89 1004.39 1003.86 1004.20 1004.33 1003.91 1003.22 1002.77 1002.43
1020.83 1020.42 1019.94 1019.47 1018.98 1018.44 1017.89 1017.33 1016.74 1016.16 1015.61 1015.10 1014.56 1013.98 1013.37 1012.75 1012.17 1011.67 1011.43 1010.09 1009.16 1009.30 1007.43 1005.33 1004.80 1004.19 1003.21 1003.01 1002.36 1001.64 1001.84 1001.70 1002.06 1002.32 1003.27 1003.92 1003.43 1003.58 1003.86 1004.05 1004.29 1004.35 1004.39 1003.97 1003.20 1002.56 1002.64
1020.85 1020.43 1019.97 1019.48 1018.94 1018.40 1017.81 1017.19 1016.62 1016.05 1015.44 1014.89 1014.37 1013.75 1013.07 1012.30 1011.69 1011.42 1011.04 1009.53 1009.01 1008.71 1007.44 1004.31 1003.39 1002.70 1002.20 1002.59 1001.84 1001.23 1001.46 1001.21 1001.18 1001.74 1002.31 1002.56 1002.63 1003.10 1003.74 1003.91 1004.27 1004.45 1004.49 1004.20 1003.76 1002.86 1002.54
1020.76 1020.33 1019.85 1019.34 1018.79 1018.22 1017.67 1017.04 1016.41 1015.77 1015.18 1014.61 1014.13 1013.61 1013.02 1012.04 1011.63 1011.53 1010.11 1009.10 1009.09 1008.67 1006.86 1003.51 1002.41 1001.16 1001.41 1001.18 1000.76 1000.40 1000.47 1000.50 1000.96 1000.94 1001.90 1002.18 1002.35 1002.72 1003.19 1003.41 1003.73 1004.16 1004.37 1004.17 1003.66 1003.16 1002.23
1020.67 1020.21 1019.72 1019.18 1018.61 1017.97 1017.35 1016.74 1016.10 1015.47 1014.81 1014.16 1013.69 1013.29 1012.99 1012.82 1012.12 1011.04 1009.70 1009.48 1008.87 1008.27 1005.50 1002.03 1001.22 1000.69 1000.61 1000.17 999.55 999.58 999.75 1000.03 999.93 1000.38 1001.28 1001.39 1001.83 1002.44 1002.79 1002.90 1003.15 1004.17 1004.55 1004.12 1003.68 1003.22 1002.59
1020.54 1020.05 1019.53 1018.96 1018.39 1017.75 1017.07 1016.44 1015.81 1015.09 1014.35 1013.65 1013.12 1012.89 1012.63 1012.21 1012.04 1010.10 1009.69 1009.36 1008.64 1007.00 1003.58 1000.97 1000.32 1000.20 1000.37 999.95 999.37 999.40 999.32 999.54 999.76 1000.14 1000.71 1001.03 1001.85 1002.04 1002.25 1002.80 1003.87 1005.60 1005.63 1004.96 1004.29 1003.51 1002.38
1020.39 1019.87 1019.34 1018.79 1018.23 1017.57 1016.90 1016.17 1015.31 1014.48 1013.68 1012.89 1012.34 1011.96 1012.04 1011.63 1010.21 1009.75 1009.50 1008.77 1007.49 1004.89 1002.18 1000.79 1000.02 999.80 999.54 999.29 999.07 998.71 998.47 998.74 998.75 999.48 999.97 1001.00 1001.45 1001.98 1002.57 1003.57 1004.42 1005.22 1005.15 1004.80 1004.12 1003.38 1001.84
1020.38 1019.87 1019.32 1018.73 1018.11 1017.48 1016.77 1015.91 1014.98 1014.01 1013.02 1012.09 1011.17 1010.57 1010.10 1010.38 1009.91 1010.07 1009.30 1007.81 1005.78 1003.16 1001.72 1000.61 1000.00 999.71 999.14 998.84 998.50 998.23 997.97 997.91 998.26 998.31 999.09 999.77 1001.06 1001.51 1002.15 1002.90 1003.81 1004.45 1005.14 1003.78 1002.95 1002.71 1001.79
1020.47 1019.98 1019.42 1018.81 1018.14 1017.42 1016.64 1015.73 1014.74 1013.72 1012.52 1011.32 1010.22 1010.10 1009.94 1009.75 1009.89 1009.97 1008.38 1006.49 1004.02 1002.90 1001.80 1000.75 1000.03 999.47 999.02 998.61 998.29 997.91 997.38 996.95 997.14 997.58 998.06 998.87 999.85 1001.22 1001.69 1002.39 1003.39 1004.39 1004.98 1004.15 1003.30 1003.47 1002.45
1020.51 1019.99 1019.37 1018.75 1018.07 1017.34 1016.48 1015.50 1014.59 1013.35 1011.92 1010.87 1010.29 1010.02 1009.55 1009.47 1009.55 1009.36 1007.46 1005.20 1003.88 1002.83 1001.99 1001.16 1000.25 999.85 999.20 998.59 998.13 997.61 997.15 996.58 996.68 997.02 997.22 998.33 999.36 1000.77 1002.20 1002.72 1003.94 1003.91 1004.19 1004.08 1003.11 1002.21 1001.43
1020.48 1020.01 1019.51 1018.91 1018.19 1017.38 1016.41 1015.35 1014.44 1013.19 1011.61 1010.33 1010.15 1009.55 1009.81 1009.68 1009.56 1008.29 1006.36 1004.85 1003.67 1002.76 1002.27 1001.51 1000.84 1000.22 999.76 999.09 998.33 997.55 996.63 996.58 996.02 996.66 996.95 997.51 998.26 1000.64 1001.52 1001.49 1002.19 1003.66 1003.74 1003.34 1002.40 1001.44 1000.43
1020.43 1019.97 1019.47 1018.86 1018.18 1017.46 1016.65 1015.61 1014.53 1013.28 1011.74 1010.33 1010.32 1009.46 1009.69 1009.70 1008.76 1008.01 1006.18 1004.97 1003.72 1002.58 1002.28 1001.61 1001.26 1000.78 1000.08 999.48 998.64 997.84 996.86 996.10 995.81 995.98 996.62 997.30 997.67 998.86 999.95 1000.65 1000.89 1000.84 1001.04 1001.70 1000.71 1000.84 1000.35
1020.27 1019.78 1019.19 1018.57 1018.01 1017.36 1016.54 1015.63 1014.56 1013.60 1012.86 1012.17 1010.93 1010.00 1009.57 1009.23 1008.14 1007.19 1006.02 1004.92 1003.70 1002.74 1002.12 1001.74 1001.27 1000.95 1000.64 999.89 999.29 998.32 997.35 996.41 996.15 995.85 995.73 996.92 997.07 997.81 999.23 1000.26 1000.65 1000.17 1000.41 1000.22 1000.05 999.70 998.95
1020.11 1019.59 1019.12 1018.65 1018.13 1017.49 1016.59 1015.78 1014.64 1013.50 1012.79 1012.20 1011.38 1010.13 1009.20 1008.83 1008.82 1007.78 1006.77 1005.20 1003.90 1003.03 1002.43 1002.10 1001.52 1001.19 1000.85 1000.16 999.76 998.81 997.81 996.69 996.43 996.37 995.91 995.78 996.16 996.41 996.52 997.42 998.27 998.96 999.14 999.11 998.74 998.05 997.59
1019.97 1019.52 1019.11 1018.63 1018.17 1017.56 1016.88 1015.96 1014.83 1013.65 1012.50 1012.40 1011.74 1011.76 1011.62 1009.66 1008.78 1008.41 1007.65 1006.23 1004.76 1003.70 1003.08 1002.71 1002.02 1001.62 1001.35 1000.75 999.95 999.23 998.49 997.47 996.30 996.47 996.56 996.10 995.79 996.28 996.20 996.51 996.93 997.00 997.10 997.45 997.53 997.08 996.50
1019.92 1019.47 1019.01 1018.59 1018.06 1017.57 1017.04 1016.42 1015.47 1014.30 1012.84 1012.67 1013.16 1013.25 1012.28 1010.99 1009.90 1008.71 1007.76 1006.85 1005.89 1005.09 1004.36 1003.10 1002.81 1002.46 1002.02 1001.35 1000.15 999.53 999.19 998.28 997.02 996.84 996.62 996.66 996.21 996.25 995.87 995.87 995.80 995.81 995.86 995.87 996.03 995.91 995.88
1019.77 1019.34 1018.91 1018.42 1017.97 1017.60 1017.17 1016.47 1015.95 1015.30 1014.27 1014.22 1014.51 1014.25 1013.75 1011.48 1010.17 1009.06 1008.17 1007.65 1006.99 1006.75 1004.80 1004.28 1003.89 1003.34 1002.04 1001.29 1001.04 1000.33 999.85 999.10 998.38 998.20 997.20 996.64 996.59 996.37 995.69 995.63 995.68 994.72 993.92 994.63 995.07 995.35 995.56
1019.65 1019.18 1018.73 1018.49 1018.06 1017.55 1017.14 1016.82 1016.32 1015.91 1015.60 1015.52 1015.47 1015.06 1013.99 1011.86 1010.79 1009.75 1009.00 1008.64 1007.91 1007.28 1006.40 1005.01 1004.66 1004.08 1002.43 1001.90 1000.51 999.66 999.20 998.68 998.39 997.72 997.71 997.12 996.79 996.46 996.22 996.22 995.28 993.47 993.36 993.84 994.06 994.21 994.67
1019.26 1018.87 1018.52 1018.19 1017.78 1017.41 1017.06 1016.86 1016.54 1016.15 1015.92 1015.56 1015.50 1015.37 1014.45 1012.96 1011.44 1010.20 1009.48 1008.83 1008.24 1007.41 1006.52 1005.32 1004.44 1003.70 1003.04 1002.11 1000.47 999.01 998.32 997.97 997.17 996.94 996.92 996.93 996.53 996.44 995.99 995.52 994.78 993.97 993.87 993.51 993.71 993.60 993.97
1018.79 1018.44 1018.12 1017.84 1017.61 1017.17 1016.87 1016.49 1016.52 1016.01 1015.80 1015.57 1015.46 1015.49 1014.99 1013.93 1011.20 1010.54 1010.02 1009.49 1008.85 1007.65 1006.44 1005.17 1004.32 1003.78 1003.23 1002.00 1000.62 998.97 997.42 996.73 996.63 996.61 996.70 996.59 996.51 995.70 995.95 995.09 994.22 993.29 993.03 993.31 993.35 992.93 993.62
1018.60 1018.35 1017.88 1017.52 1017.21 1016.96 1016.70 1016.39 1016.17 1016.03 1015.70 1015.57 1015.21 1015.36 1015.17 1014.06 1011.44 1010.80 1010.07 1009.48 1009.01 1008.43 1007.45 1006.22 1005.04 1003.75 1003.10 1001.72 1000.50 999.04 997.38 996.62 995.87 995.69 996.19 996.15 996.29 995.60 995.38 994.95 994.35 993.70 993.80 994.08 993.87 993.60 993.40
1017.99 1017.67 1017.46 1017.12 1016.97 1016.59 1016.24 1015.83 1015.64 1015.46 1015.46 1015.52 1014.84 1014.81 1014.86 1013.64 1011.57 1010.75 1010.24 1009.89 1009.32 1008.88 1007.88 1006.45 1005.44 1004.74 1003.52 1002.27 1000.77 999.27 998.13 996.75 996.17 995.62 995.43 995.40 995.66 995.67 995.80 995.00 994.43 993.89 994.46 994.19 993.64 993.65 993.99
1017.39 1017.16 1016.91 1016.65 1016.35 1016.14 1015.94 1015.67 1015.19 1015.16 1014.98 1014.93 1014.54 1014.15 1014.24 1013.77 1011.47 1010.23 1009.94 1009.48 1008.72 1008.09 1007.93 1007.38 1006.42 1005.89 1004.57 1003.37 1001.83 1000.41 998.92 997.78 996.60 995.89 995.93 995.74 995.27 995.18 995.47 994.75 994.55 994.57 994.56 994.31 994.16 994.01 994.49
Wind_Speed
16 17 17 17 15 17 17 17 17 17 18 18 18 19 19 20 20 20 20 20 20 20 19 18 16 16 5 3 10 3 4 8 10 7 11 9 11 5 5 4 5 4 4 4 8 6 8
15 16 16 17 17 18 17 18 18 18 18 18 19 18 19 19 20 21 21 22 22 20 19 17 14 11 2 7 3 4 3 10 9 8 8 8 6 5 3 3 5 3 9 8 6 5 6
16 16 17 17 17 17 18 18 18 19 19 19 19 19 19 20 21 22 23 22 23 22 21 18 9 3 3 15 3 5 5 4 5 3 6 6 5 5 6 4 0 3 6 4 6 2 4
16 16 17 17 16 17 18 18 19 19 19 19 19 19 21 22 22 22 24 24 24 23 17 8 7 4 9 4 4 6 7 2 3 0 1 6 4 4 1 2 2 4 2 4 4 1 4
16 17 17 17 17 17 18 18 19 18 19 19 20 20 21 22 22 23 25 25 24 10 5 11 5 3 10 3 5 9 11 9 8 3 3 6 2 1 3 2 4 2 3 4 3 2 3
16 17 19 19 18 18 19 19 19 19 19 19 20 20 21 21 22 23 26 24 8 6 3 4 1 3 7 4 4 5 6 14 6 11 6 4 2 2 1 4 6 3 4 2 5 9 8
19 19 19 19 19 19 19 19 19 20 20 19 19 21 21 22 22 22 16 3 3 4 4 8 5 5 4 6 4 4 7 11 9 8 8 5 6 11 12 6 5 8 1 7 7 9 11
18 19 20 20 20 20 20 20 20 21 21 21 21 21 22 23 23 22 2 3 4 4 8 14 16 13 10 3 4 3 13 11 10 10 8 6 11 9 4 4 5 6 4 8 9 6 4
18 18 19 20 19 19 20 20 21 22 21 21 21 21 22 23 25 1 4 4 3 2 5 7 8 8 9 12 9 7 13 7 17 12 16 13 6 9 12 10 9 3 5 7 6 4 4
17 18 19 19 20 20 20 22 21 22 22 22 21 20 18 24 2 5 5 3 5 3 4 5 5 6 9 10 8 14 13 10 7 17 16 11 9 6 9 8 11 5 4 9 4 5 4
18 19 19 20 19 20 20 23 23 21 21 23 22 18 14 9 9 4 3 7 4 4 5 3 4 2 5 15 8 13 11 9 14 11 10 10 11 12 8 9 9 1 7 7 7 4 4
18 19 20 19 20 20 21 23 23 24 25 25 24 18 15 4 4 7 8 8 4 4 8 0 5 6 6 12 7 6 11 6 3 9 6 10 2 10 8 7 10 10 6 2 3 2 6
18 19 19 21 21 23 23 24 25 25 25 27 24 20 13 5 3 4 6 3 4 6 2 3 1 5 5 11 12 9 16 17 13 14 14 5 7 4 7 8 4 4 5 2 3 5 5
18 19 20 20 20 22 23 23 24 26 28 30 27 23 2 10 4 11 4 3 7 3 5 3 2 1 7 10 14 9 17 19 16 17 13 15 11 10 7 6 10 10 3 4 6 6 5
18 20 20 20 20 21 25 27 27 28 30 30 22 1 1 2 10 2 4 7 7 4 3 5 4 1 2 4 5 9 17 22 21 18 14 15 14 5 11 7 6 5 10 5 1 1 3
19 19 20 20 21 22 23 25 29 28 31 29 4 3 4 6 9 4 4 6 4 3 4 2 2 3 5 4 5 13 13 15 18 17 17 9 14 5 6 7 4 4 3 6 2 5 6
18 18 19 19 20 21 23 26 29 31 32 13 1 0 9 5 3 3 5 6 5 5 4 3 2 5 5 4 3 7 9 7 20 16 17 12 8 6 11 12 14 5 6 4 2 3 4
17 17 18 19 21 23 23 27 30 28 31 5 3 2 3 2 2 1 3 3 2 3 2 1 2 4 5 4 4 3 7 10 12 18 16 13 10 8 7 3 4 9 10 11 8 6 3
16 16 17 17 20 21 23 25 28 28 24 5 4 2 2 3 2 1 3 4 4 3 5 3 3 4 2 2 5 3 3 2 7 15 18 10 11 9 7 6 4 9 8 18 10 3 12
16 16 16 17 19 20 24 26 28 29 27 1 3 2 1 1 2 3 5 3 4 2 2 3 3 3 4 5 5 4 4 3 2 6 4 16 18 20 16 14 8 8 15 17 19 14 13
16 16 16 16 19 18 19 23 24 27 27 3 4 4 4 3 2 5 4 4 4 3 2 2 3 4 1 3 2 6 4 6 3 7 4 10 13 17 21 17 16 18 17 18 17 19 16
17 17 16 17 16 16 17 19 21 24 24 4 4 5 5 4 5 4 1 1 3 6 3 1 3 5 3 5 8 2 8 4 3 2 4 5 5 11 22 22 22 21 22 21 23 23 20
17 17 16 16 15 16 16 16 17 18 13 4 3 1 2 3 4 4 1 3 2 11 6 9 8 8 9 4 6 12 14 15 15 7 3 7 6 7 11 15 17 22 27 23 18 15 17
17 16 17 16 16 15 15 15 14 13 9 2 0 1 2 4 4 4 6 8 14 9 11 10 14 6 2 14 19 6 8 12 12 14 12 4 5 3 4 10 16 12 14 22 23 19 21
16 16 16 16 15 14 14 14 13 12 10 3 0 2 2 5 6 13 3 2 10 13 10 13 14 13 12 10 5 5 4 4 8 7 11 8 5 4 5 7 5 7 6 15 15 21 21
14 16 15 14 14 14 13 12 13 12 6 3 0 0 2 4 3 5 5 8 6 5 6 5 6 9 5 4 3 5 7 6 7 6 3 5 3 4 3 6 10 5 5 8 13 13 8
15 14 15 15 13 13 13 13 12 13 8 2 1 3 2 4 7 4 5 3 2 3 5 7 8 5 1 3 4 5 7 2 9 12 7 5 3 10 5 5 4 6 2 4 10 5 11
14 15 15 15 14 14 13 12 11 11 10 3 4 6 3 4 12 19 18 14 11 7 5 6 8 2 3 4 3 2 4 4 3 3 6 9 8 4 3 6 7 7 8 9 1 1 4
14 14 13 13 13 14 14 14 12 11 11 6 4 3 5 5 9 16 20 20 22 17 8 4 7 6 4 4 2 3 3 3 3 6 2 6 3 4 7 4 2 3 6 4 4 4 5
Wind_Direction
8 6 4 3 2 360 357 355 351 349 346 343 341 340 337 335 332 329 326 322 320 319 320 322 324 329 330 285 255 358 6 139 157 173 163 153 167 183 206 173 166 242 244 219 244 248 244
6 4 1 359 358 355 354 351 350 347 345 342 340 338 335 331 329 327 322 319 316 314 314 311 312 318 284 265 310 318 146 140 173 168 162 165 200 196 129 172 200 218 265 265 266 227 227
4 3 0 358 358 356 352 351 348 346 343 340 337 334 331 329 328 324 319 316 313 312 307 297 281 245 220 249 80 75 135 161 158 195 164 180 164 195 147 186 221 281 277 217 203 214 165
3 1 357 356 357 356 353 350 347 344 341 339 336 332 329 328 326 323 318 314 313 309 301 290 185 178 250 240 238 267 242 191 129 76 160 148 143 103 110 70 221 265 272 186 60 105 136
359 357 355 351 351 350 347 344 345 341 340 337 335 330 330 328 326 323 318 313 308 306 330 138 145 224 260 302 227 225 188 206 152 149 131 122 152 110 159 208 202 357 78 25 342 49 207
353 352 352 350 349 345 343 341 340 336 334 333 335 332 331 328 327 324 320 308 287 300 163 227 243 250 240 216 183 149 188 160 148 146 136 151 89 210 179 200 215 157 70 16 327 344 342
356 351 350 349 347 344 341 340 339 337 336 334 333 333 330 327 325 325 330 335 214 188 219 212 194 245 298 318 259 160 163 149 138 166 174 170 198 212 216 244 97 91 328 307 300 305 327
355 353 351 349 347 343 340 339 337 337 335 334 332 332 329 326 324 321 284 272 87 344 292 235 242 260 263 335 331 152 161 162 165 175 145 150 226 218 246 208 154 199 254 303 301 334 250
352 351 350 348 343 340 337 334 335 335 334 332 331 330 330 326 319 299 307 248 23 336 264 272 210 219 223 182 220 235 182 168 177 168 188 202 213 202 219 222 193 171 246 276 275 332 240
349 348 348 344 341 338 336 337 334 333 331 329 328 329 329 329 231 344 263 161 339 231 281 246 216 241 172 168 225 202 193 180 175 190 177 212 199 173 187 227 189 240 240 266 270 212 211
347 345 343 341 337 336 334 336 335 331 327 325 324 324 327 336 302 256 34 346 296 207 278 122 165 73 155 193 143 203 186 198 197 161 176 192 179 184 197 206 138 332 289 272 230 252 280
345 343 342 339 338 338 338 337 335 333 328 323 320 318 320 292 230 257 303 311 232 208 243 336 142 165 157 203 194 131 173 198 196 159 203 185 164 192 206 226 134 180 191 65 75 328 243
346 343 342 345 344 345 343 341 338 333 326 323 317 307 291 233 236 148 326 185 194 223 2 140 163 175 201 185 209 188 173 182 177 182 188 172 167 140 136 95 37 116 186 185 185 198 239
348 348 349 348 347 346 342 338 334 333 331 326 318 311 270 199 279 260 298 177 217 245 250 339 0 261 205 161 211 194 176 183 198 190 184 193 194 171 162 163 181 171 247 221 208 195 192
350 350 349 349 345 343 345 343 340 337 331 331 321 336 198 204 219 249 185 202 212 216 316 331 312 103 155 191 218 190 193 195 186 190 195 199 199 142 176 126 147 157 208 273 216 67 243
353 352 351 350 348 347 344 342 343 338 333 336 336 314 28 355 164 220 195 227 239 236 318 320 16 17 36 343 214 196 185 195 187 190 193 191 202 162 133 103 41 183 124 186 218 209 222
350 349 348 344 345 345 344 345 346 341 338 347 327 138 8 100 167 240 212 232 249 249 250 321 22 343 342 314 318 204 198 175 196 185 201 184 215 130 156 202 165 153 198 240 238 243 225
345 343 342 343 345 349 346 345 346 345 344 7 326 54 100 264 189 33 246 242 293 244 202 291 272 256 264 294 279 269 221 234 190 166 185 194 208 185 189 108 240 203 180 204 225 182 256
345 344 342 343 347 350 350 347 346 347 356 326 7 324 110 273 9 7 311 273 262 244 257 220 266 225 214 293 315 262 263 264 173 187 181 172 210 200 183 169 152 210 179 216 245 259 204
342 342 343 346 350 349 353 353 350 345 351 177 326 303 86 80 47 342 339 294 293 273 258 248 268 215 242 256 228 289 292 317 67 213 225 187 210 220 225 226 178 192 202 211 226 233 242
340 341 343 347 352 347 349 353 351 348 347 286 13 40 357 339 106 338 308 298 302 316 358 269 226 242 13 270 249 227 248 287 257 137 94 187 220 220 231 220 202 217 218 209 216 229 238
337 342 345 349 347 348 350 349 353 353 343 64 9 358 349 298 290 294 173 344 322 335 295 292 243 341 354 244 245 22 353 301 341 149 153 177 204 202 224 223 214 226 230 230 222 229 240
334 338 340 343 348 350 352 349 351 2 357 37 15 336 307 299 328 294 51 355 353 344 271 267 316 330 307 291 291 285 275 267 270 316 300 170 172 171 219 217 225 229 225 227 223 227 229
328 331 337 341 344 350 352 351 352 2 18 0 34 275 316 293 306 305 320 308 295 292 279 289 309 286 303 325 301 253 235 245 244 247 233 205 138 213 131 150 220 249 233 218 217 222 220
322 326 330 336 339 342 347 349 348 353 2 340 28 255 292 284 283 294 308 297 310 291 260 267 267 262 318 303 280 248 189 192 217 219 207 224 178 139 168 194 321 222 202 192 200 236 226
312 320 324 331 333 336 339 342 337 333 358 310 166 269 296 304 235 270 302 298 289 309 298 259 301 299 261 255 234 242 197 182 175 177 104 167 269 236 153 208 237 211 197 211 201 241 203
315 316 317 322 326 327 330 334 333 327 342 309 254 190 260 263 275 246 216 279 246 296 286 296 338 319 308 225 230 240 230 219 179 183 169 173 185 212 160 213 262 268 199 162 203 252 189
306 309 311 315 317 317 318 321 320 317 319 300 271 194 213 255 276 265 261 253 256 248 247 349 314 169 280 246 230 237 253 191 205 168 176 171 172 172 135 199 221 156 134 202 317 163 153
289 296 302 306 308 312 313 315 316 317 312 315 257 202 207 233 265 291 271 258 238 232 266 254 288 312 282 283 263 280 250 236 205 207 147 203 255 200 214 203 23 266 305 340 280 230 176